Temp
78 78 78 79 79 80 81 82 82 81 81 81 81 81 81 81 79 79 78 77 77 76 77 77 77 77 77 77 77 77 77 76 76 76 76 75 75 75 74 75 76 75 76 76 76 76 77 77 77 77 77 77 78 77 77 77 76 77 76 76 76 76 76
77 78 79 79 79 80 81 82 82 82 82 82 82 81 82 81 79 79 78 78 78 77 77 77 77 77 77 77 78 77 76 76 76 77 77 75 75 74 75 75 76 76 76 77 77 77 77 77 77 77 77 77 78 78 78 77 76 76 76 75 75 75 76
77 78 79 79 79 80 80 82 82 82 82 82 82 82 82 80 80 79 78 78 77 78 78 77 77 77 78 77 77 77 77 76 76 76 76 77 76 76 76 75 76 76 77 77 77 77 78 77 76 77 77 77 78 77 77 77 76 76 75 75 75 76 75
77 78 79 80 80 80 81 82 82 83 83 83 83 83 82 81 81 80 80 79 78 78 77 78 78 78 78 77 77 77 76 76 77 77 78 78 78 77 75 74 75 76 76 76 78 78 79 78 77 76 79 77 77 77 77 77 77 76 75 75 74 75 75
77 78 79 79 79 80 81 82 82 82 83 84 84 83 83 83 83 81 81 80 80 79 79 79 79 79 79 78 78 78 77 77 76 77 78 79 78 77 76 76 75 76 77 78 77 77 77 77 77 76 76 76 77 76 77 76 77 76 76 75 75 75 74
77 77 78 79 79 80 81 82 83 83 83 83 83 83 83 84 83 82 82 81 80 81 80 79 79 79 78 79 79 79 78 77 77 77 77 78 77 77 77 76 76 76 77 77 78 77 78 77 77 77 76 76 77 77 77 77 77 76 76 75 75 75 75
77 77 78 79 80 80 81 82 83 84 84 85 84 84 83 83 83 83 83 81 81 80 79 79 80 79 79 79 79 78 77 78 77 77 77 78 78 78 78 77 77 77 78 77 77 77 77 77 77 77 77 77 77 77 77 76 76 76 76 75 75 75 75
78 78 78 79 80 81 81 82 83 84 84 85 84 83 82 83 83 82 82 82 82 82 81 80 80 79 79 79 79 79 78 78 78 78 77 77 77 78 78 77 77 77 76 76 77 77 78 77 78 77 77 77 77 76 77 77 76 77 76 75 75 75 76
79 79 79 80 81 82 82 82 83 83 83 83 84 83 83 83 83 83 83 83 82 82 81 82 81 81 80 79 79 78 79 79 78 78 77 77 78 78 79 79 78 77 76 77 78 77 78 78 78 77 76 76 76 76 76 76 77 77 76 76 75 75 76
74 75 77 80 81 82 82 82 82 82 81 82 82 82 83 83 83 83 83 83 83 82 82 82 82 82 81 80 79 80 79 78 79 79 78 78 78 78 79 80 80 78 77 78 78 77 77 78 78 77 75 76 76 75 76 76 77 77 77 77 76 76 76
74 74 75 77 77 79 80 81 81 80 81 81 82 83 83 83 83 83 83 83 83 83 83 83 83 82 81 81 80 80 79 79 79 79 78 79 79 79 80 80 80 79 79 78 78 78 77 77 77 76 75 76 75 75 75 76 76 76 77 77 77 77 76
68 69 69 70 72 74 76 79 80 79 80 81 82 83 83 83 84 84 84 83 84 83 83 84 84 83 82 81 80 79 79 79 79 79 79 79 80 80 80 80 80 80 80 79 79 78 79 78 77 78 76 76 76 76 76 76 76 76 77 77 77 76 76
66 66 67 69 69 70 70 70 75 77 77 80 82 83 84 83 84 84 83 83 84 84 84 84 83 83 82 81 81 80 79 80 80 80 80 80 80 81 81 81 81 81 80 80 80 79 79 79 78 78 78 77 77 77 76 76 76 76 76 76 76 76 76
65 65 65 66 67 67 68 69 68 72 77 78 80 82 82 84 84 84 84 83 84 84 84 84 83 82 82 81 80 80 80 80 81 80 80 80 79 80 80 81 81 81 80 80 79 80 80 80 79 78 78 78 78 78 78 77 76 76 76 76 76 76 76
62 62 63 64 64 65 66 67 68 68 70 74 80 80 81 83 83 83 84 84 84 84 84 84 83 82 82 81 80 80 80 80 81 81 80 80 79 79 79 80 80 80 80 80 80 81 81 81 81 79 78 78 78 78 78 78 78 77 77 76 76 76 76
62 62 62 62 63 64 65 66 66 67 69 69 70 72 79 81 81 83 83 84 84 84 85 84 83 82 82 81 80 81 81 80 80 80 80 79 78 78 79 80 80 81 80 80 80 80 80 80 80 80 79 78 78 78 78 78 79 76 71 73 78 76 78
62 62 62 62 63 63 64 65 65 66 66 67 69 70 70 73 78 82 84 85 85 84 85 84 82 82 82 81 82 81 81 80 79 79 78 79 79 78 78 79 80 80 79 79 79 79 79 79 79 80 80 79 79 78 78 80 80 72 68 68 70 77 77
60 61 62 62 62 62 63 64 64 65 65 66 68 70 71 70 72 78 83 84 85 85 85 85 84 82 81 82 81 81 80 80 79 79 79 79 78 78 78 79 79 79 79 79 79 78 80 79 79 79 80 81 80 79 79 79 74 69 67 67 67 70 78
60 60 61 61 62 62 62 63 64 64 64 65 67 68 69 70 71 71 73 75 77 80 83 84 84 82 81 82 82 81 80 80 79 79 79 79 79 79 79 78 78 78 79 79 80 80 78 78 79 79 79 80 79 79 80 80 73 68 67 66 66 66 72
60 60 61 60 62 61 62 63 64 64 65 66 67 70 69 71 71 71 72 72 72 73 72 72 73 79 82 81 81 80 80 80 80 79 79 79 79 79 78 78 78 79 80 80 80 79 79 79 79 79 78 79 79 79 80 80 73 68 66 65 65 65 68
58 60 60 60 60 61 61 61 62 62 65 66 68 69 70 70 72 72 72 72 72 72 73 73 73 72 74 78 80 80 80 80 80 79 79 79 79 79 78 78 78 79 80 80 80 79 78 79 79 79 79 79 80 80 80 82 71 66 64 63 63 64 66
58 59 59 61 61 61 61 62 61 62 63 66 67 68 70 70 72 72 73 73 72 72 73 73 73 74 74 76 80 80 80 80 80 80 80 79 79 79 78 78 78 78 79 80 80 81 80 80 80 79 79 79 80 79 79 82 70 65 64 62 62 63 69
59 60 60 61 63 63 63 64 64 64 66 66 66 67 68 69 70 70 73 73 74 74 75 75 74 75 77 79 81 81 80 81 80 80 80 79 79 79 79 78 78 79 80 79 80 80 80 80 80 80 80 80 79 79 80 81 73 65 62 61 61 63 71
60 61 62 62 63 64 64 64 65 65 66 66 67 68 68 69 69 70 71 72 74 73 74 74 75 76 77 79 81 81 80 80 80 80 80 80 79 79 80 80 80 80 80 79 79 79 80 81 80 81 81 80 80 80 80 81 75 64 61 60 60 64 73
59 60 61 62 62 62 63 63 63 64 65 65 65 67 69 69 69 69 70 71 74 75 75 74 75 75 76 77 79 80 80 81 80 80 80 79 80 80 80 80 80 80 80 80 80 80 81 81 80 81 81 81 81 78 79 81 77 65 61 60 59 64 73
58 58 60 62 63 63 63 64 64 63 63 63 64 67 68 70 70 69 69 70 73 74 74 76 76 77 78 79 78 79 79 80 80 80 80 80 80 80 80 81 80 80 80 80 81 81 81 81 81 80 81 81 81 82 80 81 81 75 61 59 58 59 73
59 60 59 61 62 63 62 63 63 63 63 65 65 67 68 69 68 68 69 70 70 71 74 76 77 78 77 77 79 80 79 80 80 80 81 81 80 81 81 81 80 81 80 80 81 81 80 80 81 81 81 81 81 81 81 82 81 79 62 58 57 57 63
57 59 61 62 62 62 62 62 62 63 64 66 67 68 68 68 67 67 67 68 68 71 74 74 75 77 77 73 72 76 79 79 79 81 81 81 81 80 80 81 82 82 81 81 80 79 79 79 79 80 80 81 81 81 81 80 75 83 66 59 56 56 56
55 56 57 58 59 62 62 61 61 62 63 65 66 67 67 68 66 66 67 66 68 70 71 72 74 75 76 76 76 76 75 77 79 80 82 82 82 81 80 81 81 81 81 79 79 78 78 78 79 79 79 79 80 81 81 81 80 70 75 60 56 55 55
55 56 57 59 60 60 62 60 61 62 63 64 65 66 67 66 65 66 66 66 69 69 70 71 73 74 74 76 76 76 76 77 79 81 82 82 81 81 80 80 80 80 80 80 79 79 78 78 78 78 78 78 79 80 81 81 81 72 67 69 56 55 54
54 55 56 57 57 59 60 60 60 61 62 63 64 66 65 65 64 64 64 66 68 68 68 70 72 73 74 75 76 76 77 78 79 79 80 81 81 80 80 80 80 79 80 79 79 79 78 78 78 78 78 78 78 79 80 80 81 82 72 64 61 56 55
54 54 56 58 58 59 59 59 60 60 61 62 65 65 64 64 64 62 64 66 67 68 68 69 71 72 73 74 75 76 77 77 78 79 80 80 81 81 81 81 80 80 79 79 79 79 78 78 78 78 78 78 79 79 80 80 81 81 81 69 65 60 56
54 54 54 55 57 59 59 59 58 59 60 61 63 64 64 63 64 64 65 65 66 67 68 70 70 71 71 72 74 74 75 75 76 78 80 80 81 82 82 82 81 80 79 79 79 79 79 78 78 77 78 78 79 80 79 80 80 80 81 77 72 70 66
53 53 54 54 55 57 58 58 57 58 59 60 62 63 63 63 63 64 64 65 66 67 67 67 68 68 69 70 71 73 74 75 75 76 77 79 80 80 81 81 82 81 80 79 79 79 78 79 78 78 78 79 79 79 79 79 80 80 80 80 76 75 72
53 53 54 53 55 57 56 57 58 59 59 60 61 62 62 62 63 63 63 64 65 65 64 64 66 67 67 69 71 72 74 75 75 76 77 78 79 80 81 82 82 81 82 84 83 83 82 80 80 81 82 81 80 79 78 79 79 81 71 81 69 74 76
53 53 54 54 55 55 56 58 58 58 59 60 61 61 61 61 62 62 63 64 65 64 62 63 64 65 66 68 70 73 74 74 75 76 76 78 78 79 78 75 70 76 83 82 74 71 69 68 81 82 83 81 82 82 81 80 82 72 64 62 60 58 62
52 53 53 55 54 54 55 56 58 59 59 60 60 60 61 61 61 62 63 64 64 64 63 63 63 64 66 68 70 71 73 73 73 74 75 77 78 78 78 77 74 59 60 67 71 66 60 58 62 65 70 80 82 79 70 70 68 64 58 57 55 54 55
53 53 54 55 54 55 55 56 57 58 58 58 59 59 60 60 61 61 63 64 64 64 63 63 63 63 65 67 69 70 71 72 72 73 74 76 77 77 76 76 76 74 60 55 58 58 56 56 56 57 57 62 69 76 80 66 59 58 54 55 54 53 53
MSLP
1007.84 1008.32 1008.44 1008.52 1008.80 1008.88 1009.00 1009.08 1009.32 1009.76 1010.04 1010.40 1010.64 1010.88 1011.20 1011.44 1011.80 1012.20 1012.68 1013.04 1013.40 1013.76 1013.92 1014.16 1014.44 1014.80 1015.20 1015.40 1015.52 1015.64 1015.84 1016.20 1016.52 1016.84 1017.12 1017.28 1017.36 1017.60 1017.88 1017.92 1018.08 1018.20 1018.28 1018.52 1018.52 1018.56 1018.40 1018.40 1018.56 1018.60 1018.72 1018.84 1018.92 1019.00 1019.12 1019.20 1019.36 1019.44 1019.60 1019.72 1019.88 1020.08 1020.20
1007.84 1007.80 1007.96 1008.08 1008.32 1008.48 1008.48 1008.52 1008.84 1009.24 1009.64 1009.92 1010.24 1010.56 1010.80 1011.12 1011.48 1011.92 1012.24 1012.56 1012.88 1013.24 1013.60 1013.88 1014.20 1014.48 1014.76 1015.08 1015.24 1015.44 1015.76 1015.96 1016.16 1016.44 1016.76 1017.04 1017.16 1017.32 1017.40 1017.60 1017.76 1017.92 1017.96 1018.00 1018.08 1018.12 1018.24 1018.28 1018.32 1018.48 1018.64 1018.72 1018.80 1018.76 1018.92 1019.04 1019.16 1019.32 1019.48 1019.64 1019.88 1020.04 1020.12
1006.92 1006.96 1007.16 1007.44 1007.72 1007.84 1008.04 1008.20 1008.44 1008.64 1009.04 1009.44 1009.80 1010.20 1010.40 1010.64 1010.92 1011.36 1011.88 1012.32 1012.76 1013.00 1013.24 1013.48 1013.76 1014.04 1014.32 1014.68 1015.16 1015.36 1015.52 1015.76 1016.08 1016.36 1016.64 1016.80 1016.96 1017.04 1017.16 1017.32 1017.48 1017.60 1017.60 1017.68 1017.84 1017.96 1017.92 1018.12 1018.16 1018.28 1018.40 1018.64 1018.68 1018.76 1018.76 1018.92 1019.00 1019.16 1019.36 1019.52 1019.76 1019.92 1020.08
1006.32 1006.36 1006.32 1006.28 1006.64 1007.08 1007.40 1007.64 1007.96 1008.24 1008.44 1008.76 1009.16 1009.48 1009.88 1010.24 1010.52 1010.96 1011.36 1011.80 1012.36 1012.80 1013.20 1013.28 1013.52 1013.84 1014.12 1014.52 1014.88 1015.12 1015.40 1015.56 1015.68 1015.88 1016.08 1016.28 1016.56 1016.72 1017.08 1017.28 1017.36 1017.40 1017.64 1017.72 1017.60 1017.64 1017.68 1017.84 1018.08 1018.20 1018.24 1018.48 1018.60 1018.64 1018.72 1018.84 1018.92 1019.04 1019.20 1019.40 1019.64 1019.72 1019.84
1005.84 1005.88 1006.24 1006.64 1006.88 1007.04 1007.16 1007.28 1007.48 1007.72 1007.96 1008.16 1008.56 1008.92 1009.32 1009.76 1010.24 1010.76 1011.16 1011.40 1011.72 1012.20 1012.44 1012.80 1013.16 1013.48 1013.80 1014.04 1014.36 1014.64 1014.96 1015.20 1015.48 1015.60 1015.80 1015.96 1016.16 1016.52 1016.88 1017.08 1017.20 1017.28 1017.24 1017.28 1017.40 1017.56 1017.68 1017.84 1017.96 1018.08 1018.24 1018.32 1018.48 1018.60 1018.68 1018.76 1018.88 1018.96 1019.16 1019.36 1019.64 1019.72 1019.88
1005.76 1006.12 1006.20 1006.24 1006.36 1006.40 1006.44 1006.56 1006.80 1007.16 1007.52 1007.92 1008.28 1008.76 1009.12 1009.52 1009.96 1010.52 1010.80 1011.24 1011.60 1011.80 1012.16 1012.60 1012.88 1013.08 1013.52 1013.68 1014.00 1014.32 1014.64 1014.96 1015.16 1015.36 1015.60 1015.80 1016.12 1016.44 1016.60 1016.68 1016.84 1016.96 1017.16 1017.16 1017.16 1017.32 1017.40 1017.60 1017.72 1017.88 1018.12 1018.20 1018.36 1018.52 1018.60 1018.76 1018.80 1018.88 1019.08 1019.28 1019.52 1019.68 1019.84
1005.12 1005.40 1005.60 1005.68 1005.76 1006.00 1006.16 1006.28 1006.44 1006.72 1007.00 1007.36 1007.76 1008.24 1008.76 1009.20 1009.64 1009.96 1010.44 1010.96 1011.24 1011.80 1012.12 1012.36 1012.48 1012.76 1013.12 1013.44 1013.76 1014.04 1014.44 1014.76 1015.08 1015.36 1015.52 1015.80 1015.92 1016.16 1016.24 1016.36 1016.52 1016.64 1016.64 1016.80 1017.12 1017.08 1017.36 1017.48 1017.52 1017.64 1017.80 1018.04 1018.24 1018.40 1018.52 1018.64 1018.76 1018.80 1019.00 1019.24 1019.44 1019.56 1019.64
1004.32 1004.84 1004.80 1004.88 1005.12 1005.40 1005.76 1006.00 1006.16 1006.40 1006.76 1007.16 1007.72 1008.24 1008.64 1008.84 1009.28 1009.80 1010.24 1010.44 1010.88 1011.32 1011.64 1012.00 1012.36 1012.56 1012.84 1013.12 1013.36 1013.76 1014.04 1014.36 1014.60 1015.00 1015.32 1015.68 1015.88 1016.00 1016.04 1016.20 1016.32 1016.32 1016.56 1016.84 1016.76 1016.88 1017.12 1017.24 1017.28 1017.40 1017.60 1017.88 1018.04 1018.16 1018.28 1018.40 1018.52 1018.64 1018.88 1019.16 1019.36 1019.48 1019.52
1003.88 1003.72 1004.04 1004.32 1004.56 1004.84 1005.12 1005.44 1005.72 1006.04 1006.48 1006.92 1007.24 1007.64 1008.12 1008.60 1008.96 1009.32 1009.68 1010.08 1010.48 1010.96 1011.24 1011.36 1011.68 1012.00 1012.44 1012.88 1013.24 1013.52 1013.68 1013.96 1014.32 1014.60 1015.04 1015.44 1015.64 1015.88 1015.88 1015.92 1016.00 1016.16 1016.48 1016.52 1016.60 1016.64 1016.80 1016.92 1017.04 1017.20 1017.44 1017.68 1017.80 1017.96 1018.12 1018.20 1018.32 1018.40 1018.68 1018.92 1019.12 1019.28 1019.40
1004.48 1004.76 1004.76 1004.68 1004.72 1004.92 1005.12 1005.36 1005.72 1006.20 1006.68 1006.96 1007.20 1007.52 1007.88 1008.12 1008.48 1008.88 1009.28 1009.64 1010.08 1010.56 1010.76 1011.08 1011.40 1011.72 1012.12 1012.52 1012.84 1013.08 1013.48 1013.84 1014.00 1014.32 1014.64 1015.04 1015.20 1015.52 1015.60 1015.68 1015.80 1015.92 1016.20 1016.28 1016.36 1016.64 1016.60 1016.64 1016.84 1017.04 1017.32 1017.52 1017.68 1017.80 1017.92 1018.00 1018.12 1018.20 1018.36 1018.52 1018.72 1018.96 1019.12
1004.76 1004.80 1005.04 1005.40 1005.60 1005.68 1005.76 1005.96 1006.16 1006.16 1006.16 1006.44 1006.68 1006.92 1007.32 1007.76 1008.16 1008.48 1008.84 1009.20 1009.64 1009.96 1010.16 1010.60 1010.92 1011.40 1011.80 1012.20 1012.64 1012.92 1013.16 1013.44 1013.72 1014.12 1014.36 1014.48 1014.68 1015.00 1015.20 1015.44 1015.64 1015.80 1015.96 1016.12 1016.36 1016.36 1016.52 1016.64 1016.64 1016.96 1017.20 1017.40 1017.52 1017.64 1017.76 1017.80 1017.88 1018.04 1018.16 1018.20 1018.28 1018.52 1018.72
1007.76 1007.48 1007.08 1006.28 1006.00 1006.00 1006.32 1006.36 1006.48 1006.56 1006.52 1006.44 1006.44 1006.64 1006.96 1007.32 1007.64 1008.00 1008.40 1008.72 1008.92 1009.48 1009.88 1010.24 1010.52 1010.96 1011.52 1011.92 1012.40 1012.64 1012.92 1013.16 1013.44 1013.72 1013.92 1014.12 1014.28 1014.44 1014.68 1015.00 1015.32 1015.56 1015.72 1015.88 1016.16 1016.20 1016.28 1016.44 1016.52 1016.64 1016.88 1016.96 1017.04 1017.16 1017.28 1017.44 1017.64 1017.80 1017.88 1017.96 1018.08 1018.32 1018.52
1009.32 1009.08 1008.76 1008.52 1008.04 1007.60 1006.92 1006.92 1006.80 1006.96 1007.24 1007.24 1007.28 1007.12 1007.20 1007.40 1007.64 1007.88 1008.20 1008.56 1008.72 1008.96 1009.40 1009.76 1010.20 1010.68 1011.20 1011.56 1011.92 1012.28 1012.56 1012.80 1013.04 1013.20 1013.48 1013.72 1013.92 1014.08 1014.32 1014.56 1014.80 1015.12 1015.44 1015.56 1015.84 1016.04 1016.16 1016.16 1016.32 1016.28 1016.44 1016.52 1016.64 1016.84 1016.92 1017.12 1017.28 1017.48 1017.64 1017.72 1017.88 1018.12 1018.36
1009.96 1009.68 1009.68 1009.32 1009.00 1008.92 1008.80 1008.52 1008.08 1007.24 1006.84 1007.12 1007.28 1007.32 1007.44 1007.48 1007.64 1007.92 1008.20 1008.52 1008.60 1008.80 1009.16 1009.48 1009.96 1010.44 1010.84 1011.20 1011.60 1011.88 1012.04 1012.24 1012.40 1012.72 1012.96 1013.20 1013.52 1013.84 1014.04 1014.20 1014.40 1014.60 1014.84 1015.16 1015.60 1015.80 1015.88 1015.96 1016.08 1016.08 1016.12 1016.20 1016.32 1016.36 1016.52 1016.76 1017.04 1017.20 1017.36 1017.48 1017.64 1017.84 1018.04
1011.04 1010.96 1010.76 1010.56 1010.48 1010.08 1009.72 1009.52 1009.16 1008.84 1008.28 1007.36 1006.92 1007.12 1007.24 1007.32 1007.52 1007.72 1007.96 1008.16 1008.44 1008.68 1008.92 1009.08 1009.64 1010.12 1010.48 1010.84 1011.24 1011.40 1011.48 1011.76 1012.04 1012.28 1012.60 1012.88 1013.20 1013.52 1013.80 1013.96 1014.12 1014.24 1014.44 1014.72 1015.04 1015.24 1015.40 1015.52 1015.72 1015.96 1016.12 1016.12 1016.16 1016.24 1016.32 1016.52 1016.68 1016.80 1017.00 1017.28 1017.44 1017.52 1017.72
1011.84 1011.76 1011.68 1011.56 1011.36 1011.04 1010.60 1010.24 1009.92 1009.60 1009.20 1008.92 1008.48 1007.80 1007.20 1007.12 1007.28 1007.40 1007.76 1008.04 1008.20 1008.48 1008.64 1009.00 1009.48 1009.84 1010.16 1010.52 1010.68 1010.80 1011.08 1011.36 1011.68 1012.00 1012.32 1012.72 1012.96 1013.12 1013.32 1013.56 1013.80 1014.04 1014.32 1014.44 1014.52 1014.72 1014.92 1015.20 1015.36 1015.60 1015.84 1016.08 1016.12 1016.16 1016.24 1016.28 1016.20 1016.20 1016.36 1016.56 1016.84 1017.16 1017.24
1012.56 1012.32 1012.16 1012.00 1011.80 1011.60 1011.28 1010.84 1010.52 1010.16 1010.00 1009.84 1009.48 1009.04 1008.60 1007.88 1007.16 1007.08 1007.28 1007.52 1007.80 1008.12 1008.24 1008.64 1009.20 1009.52 1009.80 1010.08 1010.12 1010.40 1010.68 1011.08 1011.40 1011.68 1012.08 1012.20 1012.44 1012.72 1013.00 1013.20 1013.36 1013.64 1013.92 1014.16 1014.32 1014.44 1014.56 1014.76 1015.08 1015.24 1015.40 1015.64 1015.84 1016.00 1016.00 1015.96 1015.80 1015.84 1016.04 1016.20 1016.36 1016.56 1016.88
1013.36 1012.96 1012.56 1012.32 1012.20 1012.12 1011.72 1011.36 1011.08 1010.80 1010.68 1010.36 1010.00 1009.60 1009.08 1008.52 1008.04 1007.28 1007.16 1007.16 1007.36 1007.52 1007.72 1008.16 1008.60 1009.04 1009.40 1009.52 1009.76 1010.08 1010.36 1010.64 1010.96 1011.36 1011.60 1011.84 1012.08 1012.24 1012.44 1012.72 1013.04 1013.28 1013.48 1013.68 1013.96 1014.08 1014.28 1014.56 1014.64 1014.76 1014.96 1015.16 1015.36 1015.56 1015.56 1015.56 1015.36 1015.52 1015.72 1015.92 1016.08 1016.20 1016.36
1013.80 1013.40 1012.92 1012.64 1012.48 1012.44 1012.24 1011.96 1011.64 1011.32 1010.96 1010.64 1010.28 1009.96 1009.40 1008.88 1008.40 1008.32 1008.08 1007.68 1007.56 1007.60 1007.96 1008.12 1008.24 1008.64 1009.00 1009.08 1009.32 1009.56 1009.88 1010.24 1010.68 1010.96 1011.20 1011.32 1011.44 1011.64 1011.96 1012.32 1012.64 1012.88 1013.12 1013.28 1013.24 1013.60 1014.08 1014.12 1014.28 1014.44 1014.52 1014.72 1015.00 1015.12 1015.04 1015.08 1014.92 1015.16 1015.36 1015.56 1015.76 1015.96 1016.08
1014.12 1013.72 1013.24 1012.96 1012.76 1012.72 1012.48 1012.08 1011.80 1011.48 1011.08 1010.84 1010.44 1009.96 1009.60 1008.96 1008.68 1008.40 1008.04 1008.04 1007.84 1007.52 1008.16 1009.32 1010.28 1009.84 1008.88 1008.80 1008.96 1009.24 1009.60 1009.92 1010.24 1010.56 1010.68 1010.80 1011.04 1011.32 1011.64 1011.96 1012.16 1012.20 1012.36 1012.64 1013.00 1013.36 1013.48 1013.60 1013.84 1013.96 1014.20 1014.32 1014.48 1014.56 1014.52 1014.56 1014.44 1014.68 1014.88 1015.12 1015.36 1015.56 1015.88
1014.60 1014.04 1013.76 1013.44 1013.36 1013.24 1012.88 1012.48 1012.04 1011.64 1011.04 1010.68 1010.48 1010.04 1009.68 1009.32 1008.80 1008.44 1008.24 1007.84 1007.80 1007.72 1007.64 1007.96 1008.84 1010.20 1010.64 1009.76 1009.08 1009.16 1009.36 1009.64 1009.84 1010.12 1010.32 1010.48 1010.76 1011.08 1011.36 1011.52 1011.68 1011.88 1012.00 1012.24 1012.52 1012.76 1013.00 1013.16 1013.44 1013.52 1013.64 1013.76 1013.88 1014.08 1014.12 1013.96 1013.88 1014.20 1014.40 1014.64 1014.88 1015.12 1015.56
1014.76 1014.40 1014.28 1013.96 1013.76 1013.72 1013.44 1012.92 1012.48 1012.00 1011.48 1010.76 1010.60 1010.32 1010.08 1009.76 1009.16 1008.80 1008.36 1007.96 1007.96 1008.16 1008.40 1008.24 1008.16 1008.16 1008.84 1009.68 1009.36 1009.00 1008.96 1009.24 1009.52 1009.76 1009.92 1010.20 1010.44 1010.72 1010.88 1011.04 1011.24 1011.52 1011.60 1011.84 1012.00 1012.08 1012.28 1012.52 1012.68 1012.92 1013.08 1013.12 1013.36 1013.64 1013.72 1013.36 1013.40 1013.68 1013.92 1014.12 1014.36 1014.68 1015.20
1014.96 1014.32 1014.32 1014.24 1013.96 1013.76 1013.52 1013.20 1012.52 1011.76 1011.32 1010.96 1010.68 1010.72 1010.32 1009.76 1009.28 1009.20 1008.64 1008.32 1008.16 1008.16 1008.24 1008.56 1008.88 1008.64 1008.24 1008.32 1008.32 1008.44 1008.52 1008.72 1009.08 1009.36 1009.52 1009.76 1010.12 1010.32 1010.44 1010.60 1010.76 1010.88 1011.00 1011.56 1011.68 1011.88 1012.00 1012.04 1012.12 1012.12 1012.40 1012.64 1012.80 1013.04 1013.00 1012.92 1012.88 1013.12 1013.32 1013.60 1013.80 1014.44 1014.80
1014.88 1014.52 1014.16 1014.16 1014.16 1013.88 1013.52 1013.24 1012.80 1012.20 1011.68 1011.40 1011.08 1010.64 1010.04 1009.56 1009.24 1009.24 1008.96 1008.60 1008.32 1008.28 1008.36 1008.44 1008.56 1008.40 1008.28 1008.04 1007.80 1007.84 1008.00 1008.20 1008.48 1008.84 1009.08 1009.36 1009.64 1009.72 1009.80 1009.88 1010.04 1010.32 1010.40 1010.92 1011.20 1011.40 1011.40 1011.44 1011.68 1011.68 1011.72 1011.92 1012.08 1012.12 1012.48 1012.40 1012.28 1012.56 1012.76 1013.00 1013.28 1013.72 1014.12
1014.96 1014.60 1014.36 1014.16 1013.92 1013.96 1013.80 1013.36 1013.00 1012.56 1011.96 1011.36 1011.08 1011.00 1010.32 1009.76 1009.32 1009.24 1009.20 1008.88 1008.56 1008.28 1008.32 1008.24 1008.04 1007.96 1007.92 1007.80 1007.64 1007.56 1007.60 1007.76 1007.96 1008.24 1008.56 1008.84 1008.92 1009.04 1009.36 1009.48 1009.60 1009.60 1009.88 1010.16 1010.44 1010.68 1010.76 1011.04 1011.32 1011.32 1011.28 1011.16 1011.24 1011.40 1011.76 1011.80 1011.80 1011.92 1012.16 1012.36 1012.68 1013.28 1013.52
1015.08 1014.76 1014.36 1014.20 1013.88 1013.60 1013.56 1013.48 1013.12 1012.64 1011.96 1011.40 1010.88 1010.52 1010.36 1009.64 1009.48 1009.40 1009.36 1009.24 1008.76 1008.48 1008.24 1007.84 1007.56 1007.32 1007.24 1007.20 1007.28 1007.40 1007.40 1007.40 1007.60 1007.84 1008.08 1008.28 1008.36 1008.48 1008.64 1008.72 1009.04 1009.32 1009.52 1009.68 1009.84 1010.16 1010.32 1010.52 1010.72 1010.96 1010.88 1010.72 1010.88 1010.96 1011.04 1011.28 1011.24 1011.24 1011.48 1011.72 1012.08 1012.56 1012.88
1015.32 1015.08 1014.76 1014.24 1014.04 1013.72 1013.36 1013.12 1013.12 1013.00 1012.56 1011.88 1011.12 1010.44 1010.04 1009.84 1009.56 1009.44 1009.40 1009.32 1009.12 1008.88 1008.28 1007.76 1007.40 1007.16 1007.16 1007.32 1007.08 1006.96 1007.08 1007.12 1007.28 1007.52 1007.56 1007.64 1007.84 1007.92 1008.12 1008.28 1008.56 1008.68 1009.04 1009.28 1009.40 1009.68 1009.96 1010.12 1010.20 1010.36 1010.36 1010.36 1010.40 1010.48 1010.44 1010.44 1010.64 1010.56 1010.80 1011.12 1011.52 1012.00 1012.44
1015.24 1014.92 1014.56 1014.08 1013.68 1013.60 1013.44 1013.20 1012.92 1012.48 1011.96 1011.40 1010.84 1010.48 1010.12 1009.76 1009.68 1009.64 1009.56 1009.56 1009.60 1009.12 1008.36 1007.92 1007.60 1007.36 1007.28 1007.72 1007.88 1007.52 1006.84 1006.72 1006.80 1006.88 1007.12 1007.24 1007.48 1007.84 1007.96 1007.80 1007.88 1008.16 1008.44 1008.68 1009.04 1009.40 1009.56 1009.64 1009.80 1009.92 1009.96 1009.92 1009.92 1009.96 1009.92 1009.76 1009.88 1009.96 1010.20 1010.56 1010.96 1011.44 1011.76
1015.08 1015.00 1014.64 1014.00 1013.36 1013.08 1013.16 1013.24 1013.04 1012.56 1011.96 1011.20 1010.64 1010.24 1010.12 1009.92 1009.64 1009.32 1009.28 1009.52 1009.44 1008.80 1008.32 1008.00 1007.76 1007.56 1007.32 1007.20 1006.96 1006.84 1007.20 1006.80 1006.60 1006.64 1006.64 1006.80 1006.92 1007.28 1007.56 1007.52 1007.68 1007.80 1007.96 1008.36 1008.68 1009.00 1009.24 1009.36 1009.48 1009.64 1009.76 1009.72 1009.56 1009.40 1009.36 1009.32 1009.36 1009.48 1009.68 1010.00 1010.40 1010.80 1011.24
1014.88 1014.88 1014.68 1014.32 1013.96 1013.28 1012.92 1013.00 1012.92 1012.56 1011.92 1011.24 1010.60 1010.20 1010.08 1010.16 1009.92 1009.44 1009.20 1009.16 1008.76 1008.44 1008.12 1007.84 1007.64 1007.48 1007.44 1007.12 1006.88 1006.72 1006.60 1006.52 1006.44 1006.36 1006.28 1006.32 1006.48 1006.68 1007.00 1007.24 1007.28 1007.44 1007.60 1007.84 1008.24 1008.60 1008.92 1008.96 1009.08 1009.32 1009.48 1009.56 1009.32 1009.04 1008.88 1008.80 1008.84 1008.92 1009.16 1009.40 1009.84 1010.20 1010.52
1015.00 1014.72 1014.60 1014.40 1014.08 1013.52 1013.00 1012.72 1012.48 1012.44 1011.92 1011.16 1010.56 1010.12 1010.12 1010.12 1010.16 1009.76 1009.40 1008.76 1008.36 1008.12 1008.16 1008.08 1007.84 1007.56 1007.32 1007.16 1007.04 1006.84 1006.60 1006.40 1006.28 1006.12 1006.00 1005.92 1006.00 1006.36 1006.52 1006.76 1006.88 1007.32 1007.20 1007.48 1007.80 1008.04 1008.36 1008.40 1008.56 1008.84 1008.88 1008.96 1008.96 1008.68 1008.52 1008.40 1008.44 1008.44 1008.52 1008.80 1009.16 1009.60 1009.92
1015.00 1014.72 1014.44 1014.24 1013.92 1013.52 1013.04 1012.48 1012.16 1011.92 1011.76 1011.24 1010.56 1010.20 1010.16 1010.24 1010.20 1010.12 1009.64 1008.96 1008.60 1008.64 1008.72 1008.36 1008.00 1007.84 1007.56 1007.16 1006.80 1006.64 1006.44 1006.36 1006.04 1005.72 1005.56 1005.52 1005.44 1005.60 1005.68 1006.00 1006.32 1006.60 1006.76 1007.00 1007.24 1007.36 1007.64 1007.80 1008.00 1008.16 1008.32 1008.40 1008.20 1008.16 1008.04 1008.08 1008.16 1008.08 1008.00 1008.32 1008.72 1009.16 1009.32
1014.88 1014.72 1014.40 1014.08 1013.76 1013.52 1013.16 1012.76 1012.24 1011.84 1011.52 1011.24 1010.76 1010.48 1010.32 1010.32 1010.28 1010.04 1009.76 1009.40 1008.88 1008.60 1008.48 1008.24 1008.08 1007.92 1007.76 1007.52 1007.08 1006.60 1006.36 1006.24 1006.00 1005.68 1005.32 1005.16 1005.08 1005.04 1005.08 1005.24 1005.56 1005.88 1006.24 1006.44 1006.64 1006.80 1006.92 1007.12 1007.44 1007.64 1007.72 1007.76 1007.56 1007.52 1007.72 1007.88 1007.84 1007.68 1007.64 1007.80 1008.28 1008.56 1008.80
1014.68 1014.44 1014.24 1013.96 1013.64 1013.44 1013.12 1012.80 1012.60 1012.16 1011.68 1011.40 1011.00 1010.72 1010.40 1010.12 1009.92 1009.88 1009.84 1009.52 1009.04 1008.68 1008.48 1008.32 1008.04 1007.88 1007.72 1007.52 1007.12 1006.68 1006.24 1006.00 1005.72 1005.56 1005.32 1005.00 1004.84 1004.88 1004.80 1004.76 1004.88 1005.24 1005.48 1005.64 1005.72 1006.08 1006.36 1006.56 1006.80 1006.92 1006.92 1006.96 1006.92 1007.24 1007.52 1007.60 1007.32 1007.20 1007.16 1007.16 1007.48 1007.72 1008.12
1014.48 1014.20 1013.96 1013.76 1013.40 1013.24 1013.04 1012.72 1012.44 1012.20 1011.92 1011.52 1011.04 1010.68 1010.32 1009.92 1009.80 1009.84 1009.72 1009.36 1009.00 1008.72 1008.68 1008.44 1008.04 1007.64 1007.36 1007.08 1006.72 1006.32 1005.84 1005.60 1005.44 1005.28 1005.04 1004.72 1004.40 1004.08 1003.84 1003.96 1004.12 1004.24 1004.16 1003.72 1003.80 1004.28 1004.84 1005.36 1005.48 1005.44 1005.44 1005.72 1006.16 1006.72 1007.04 1006.88 1006.68 1005.96 1005.56 1006.04 1006.32 1006.80 1007.44
1014.28 1013.96 1013.56 1013.40 1013.24 1013.04 1012.88 1012.56 1012.32 1012.08 1011.80 1011.44 1011.00 1010.68 1010.44 1010.12 1009.72 1009.56 1009.52 1009.28 1008.88 1008.64 1008.52 1008.32 1008.04 1007.68 1007.24 1006.76 1006.36 1005.92 1005.60 1005.44 1005.24 1004.96 1004.68 1004.36 1004.08 1003.84 1003.52 1002.84 1002.72 1002.84 1003.20 1003.36 1003.08 1003.16 1003.28 1003.60 1004.08 1003.92 1004.24 1004.88 1004.84 1004.92 1005.48 1005.48 1004.68 1004.32 1005.08 1005.40 1005.68 1006.12 1006.36
1014.20 1013.80 1013.32 1012.92 1012.88 1012.68 1012.52 1012.36 1012.16 1011.88 1011.64 1011.28 1010.96 1010.60 1010.32 1010.12 1009.88 1009.68 1009.44 1009.16 1008.72 1008.36 1008.20 1008.16 1008.04 1007.64 1007.16 1006.72 1006.32 1005.84 1005.56 1005.40 1005.24 1004.80 1004.36 1003.84 1003.56 1003.32 1003.32 1003.28 1002.92 1002.68 1002.68 1002.60 1002.72 1002.88 1003.04 1003.16 1003.04 1003.08 1003.32 1003.72 1004.28 1004.08 1003.92 1003.80 1003.92 1004.52 1004.96 1005.28 1005.60 1005.84 1006.08
1013.88 1013.52 1013.08 1012.68 1012.56 1012.40 1012.28 1012.12 1011.92 1011.76 1011.52 1011.16 1010.88 1010.64 1010.32 1010.00 1009.76 1009.68 1009.24 1008.76 1008.40 1008.12 1007.96 1007.88 1007.84 1007.56 1007.16 1006.72 1006.20 1005.72 1005.44 1005.20 1004.96 1004.60 1004.20 1003.64 1003.12 1002.92 1002.96 1003.08 1003.28 1003.00 1002.60 1002.68 1002.68 1002.68 1002.76 1002.80 1002.84 1003.08 1003.36 1003.32 1003.36 1003.64 1003.84 1003.88 1004.20 1004.52 1004.68 1004.92 1005.24 1005.52 1005.80
Wind_Speed
15 14 15 15 15 16 17 16 17 16 17 17 17 18 18 17 16 15 15 16 18 17 16 15 15 14 14 13 12 11 11 10 8 9 8 8 8 8 8 7 8 8 7 8 8 8 7 6 6 7 6 7 7 7 6 5 5 5 4 4 5 5 6
15 16 16 16 16 17 18 17 16 16 16 17 16 18 17 17 16 16 16 17 18 18 17 16 15 14 15 14 12 11 11 12 11 9 8 7 6 6 8 8 8 9 8 8 7 7 6 6 6 7 7 6 7 7 6 5 5 4 4 4 5 5 4
18 18 18 17 17 17 18 16 16 16 17 16 17 17 18 18 17 18 17 17 18 17 16 17 17 16 15 14 12 12 12 11 10 11 10 10 10 9 8 8 8 8 9 8 7 7 6 7 6 6 7 7 7 6 6 5 5 5 4 4 5 5 5
17 19 19 20 19 17 18 18 18 16 16 18 18 19 19 18 17 16 17 17 18 17 17 16 16 16 14 14 14 13 13 12 13 13 12 11 11 9 8 8 8 7 7 8 8 8 7 7 7 6 7 6 6 6 5 6 5 4 4 4 4 4 5
16 17 15 15 16 17 17 18 18 18 18 18 18 18 18 17 16 15 15 16 18 19 19 18 15 14 13 13 12 11 13 14 13 12 11 10 10 8 9 9 9 9 10 9 8 7 7 7 7 7 6 6 6 5 6 5 5 4 4 4 5 4 5
15 15 15 16 17 17 18 19 19 19 19 19 19 18 17 17 15 17 17 17 16 16 15 16 16 16 15 15 13 12 11 11 11 11 11 10 9 10 11 11 10 10 9 10 8 8 8 8 8 7 7 6 6 6 5 5 5 5 5 4 5 5 5
15 16 16 16 17 17 18 18 18 18 17 17 15 15 15 16 18 17 16 16 17 18 17 17 17 15 14 13 13 13 13 13 11 11 10 9 9 10 11 10 9 10 10 7 8 8 8 8 9 8 8 7 7 7 6 6 6 5 4 4 5 5 4
15 15 17 17 17 17 17 17 17 17 16 14 14 15 17 17 15 16 16 16 17 16 16 17 16 14 14 13 13 14 13 13 11 11 10 10 9 10 10 10 9 9 7 8 10 8 9 10 9 8 8 8 8 8 7 7 7 6 5 6 6 5 4
13 16 17 17 17 17 17 17 17 18 18 18 18 17 18 16 16 17 17 17 16 17 17 16 16 15 13 13 12 13 13 12 12 12 12 12 10 10 10 10 10 8 9 10 9 8 9 10 9 8 8 8 8 8 8 8 8 6 6 7 7 7 6
4 4 5 7 10 11 12 13 14 13 15 16 16 16 17 17 17 16 16 17 16 18 18 16 15 14 14 14 14 14 13 12 12 13 13 13 12 11 11 10 9 8 9 9 7 8 8 8 9 7 7 8 8 7 8 8 8 7 8 9 8 8 8
4 4 4 1 3 5 6 9 13 15 17 17 17 16 16 17 16 17 17 16 16 17 17 16 14 14 14 14 15 14 14 14 13 13 14 14 12 13 12 10 9 8 9 8 8 8 8 8 7 7 7 8 8 8 7 8 8 8 8 8 8 8 8
18 15 11 9 8 4 2 6 7 8 11 13 15 15 15 16 16 16 16 17 17 16 15 16 14 15 14 14 14 14 15 14 13 14 15 14 13 14 13 12 10 9 8 9 10 9 8 9 8 8 9 9 9 9 9 8 7 8 9 9 7 6 6
15 15 16 15 12 10 11 8 1 4 3 5 7 9 10 12 14 15 15 16 16 15 15 15 14 14 14 14 15 14 14 14 14 14 13 13 13 12 12 12 12 11 11 9 9 10 10 9 9 9 9 10 9 9 9 9 8 8 8 8 7 7 7
19 19 19 17 18 17 14 11 11 2 7 6 6 6 7 8 10 12 12 14 14 14 14 13 14 14 14 14 14 14 15 15 14 14 14 13 12 11 12 12 12 12 11 9 10 10 10 10 10 9 9 10 10 10 9 8 8 7 8 8 8 8 7
19 18 17 18 17 16 16 15 12 13 10 1 6 9 8 9 9 9 10 10 12 13 14 14 14 14 15 14 15 15 14 13 12 12 12 12 12 12 12 12 12 12 11 10 10 10 11 10 10 10 9 9 9 9 9 9 9 8 8 8 8 8 9
16 16 16 15 15 15 14 14 15 14 12 12 10 3 4 9 9 10 11 11 12 12 12 12 13 14 15 15 15 14 13 13 12 12 12 12 13 13 13 13 12 12 11 12 12 11 11 10 10 10 11 10 10 9 9 9 8 11 15 13 10 9 9
15 14 14 14 14 14 14 14 14 14 14 14 12 10 8 4 4 9 10 11 12 13 12 12 13 14 15 15 15 14 13 12 13 12 13 13 13 12 12 13 12 12 12 12 11 12 11 11 12 12 11 11 11 11 10 10 10 15 15 16 17 12 9
15 15 15 14 13 14 14 14 15 14 14 13 12 12 8 6 7 2 8 9 11 12 12 13 14 15 15 15 14 13 14 14 13 13 13 13 14 13 13 13 12 13 13 12 13 12 11 11 12 12 12 11 11 11 11 11 13 16 15 16 17 15 11
13 14 15 15 16 14 12 12 12 13 13 12 11 12 11 7 5 6 7 3 4 3 2 11 14 14 14 15 15 15 14 13 13 14 14 14 14 14 13 13 13 14 13 14 13 11 11 13 12 12 12 12 12 12 12 11 15 17 17 16 17 18 15
11 12 13 14 15 15 14 11 11 11 12 11 11 10 11 8 5 2 3 2 1 7 7 7 9 8 13 14 14 14 13 13 14 14 15 14 13 13 13 13 14 14 13 12 11 12 13 13 13 12 12 12 12 12 12 12 15 17 18 17 18 18 15
11 12 12 12 13 15 15 15 14 14 15 13 12 11 10 9 9 5 3 1 1 3 8 10 10 6 10 10 11 12 12 13 14 14 14 14 13 13 13 14 14 14 13 12 13 13 13 13 13 13 12 13 13 12 12 12 17 17 18 18 18 18 15
12 10 11 11 12 12 13 14 14 13 13 13 11 10 9 10 9 8 6 2 0 1 2 3 9 12 13 12 12 12 13 13 14 14 13 13 13 14 14 14 14 14 12 11 11 11 11 11 12 13 13 13 13 13 14 13 17 17 18 19 19 18 11
11 11 9 9 10 11 9 11 13 15 13 13 13 9 10 9 9 8 6 3 2 1 2 3 6 9 11 13 13 13 12 13 14 14 14 14 14 15 15 14 14 13 11 11 12 12 12 13 13 12 13 13 13 14 14 14 16 18 19 19 20 14 10
8 9 11 10 8 9 9 8 9 13 13 14 12 10 10 10 8 6 5 4 3 2 3 4 6 7 8 10 11 11 12 12 13 14 14 13 14 15 14 13 12 12 11 13 13 13 13 12 11 12 12 14 15 15 14 14 15 18 19 20 20 17 13
10 9 8 10 12 10 11 10 10 11 13 14 13 6 8 8 9 7 6 6 7 5 3 3 5 5 6 7 7 7 9 11 12 13 13 13 14 13 14 13 13 12 11 12 11 12 11 11 11 12 12 13 14 17 17 14 15 18 19 21 20 17 11
10 11 12 9 9 12 10 9 9 11 13 14 15 13 7 8 8 7 6 7 7 6 6 6 5 4 6 6 5 6 8 8 10 12 12 13 13 12 13 11 11 11 12 12 11 11 11 11 11 13 12 12 13 13 14 15 14 15 21 21 21 21 14
5 7 11 12 9 10 10 11 9 9 11 11 12 12 10 6 6 7 7 7 5 7 8 9 9 9 4 5 5 7 8 8 9 11 11 12 12 12 11 11 12 12 12 12 12 11 11 13 12 13 13 12 12 12 13 13 15 15 20 21 21 22 19
4 7 9 10 10 7 8 10 12 12 12 12 12 11 9 9 8 5 5 6 7 7 9 9 9 10 8 7 11 11 8 8 9 10 10 10 10 10 11 11 12 11 12 11 11 13 14 13 12 12 12 11 12 12 13 14 19 15 17 20 21 21 24
4 5 9 12 15 12 9 9 11 13 13 12 13 10 8 9 10 10 8 7 6 7 8 8 9 9 9 9 7 5 8 8 8 9 9 10 11 12 12 11 11 12 12 12 12 13 14 14 12 12 12 11 11 11 13 13 13 19 15 18 21 21 22
5 4 6 7 9 12 11 9 8 12 12 12 11 11 8 8 9 10 10 11 9 8 8 9 9 8 8 8 5 4 4 5 7 9 9 11 11 11 12 11 12 12 11 12 12 12 13 12 11 12 12 12 12 11 11 11 12 14 19 16 20 21 23
7 7 6 7 8 10 10 11 11 11 12 13 12 11 10 9 9 10 12 11 11 12 11 10 9 10 10 8 7 7 6 6 6 7 8 10 11 11 11 12 12 11 11 11 12 12 12 12 12 12 13 12 13 12 11 11 11 12 14 20 19 21 22
6 6 6 6 7 8 9 11 12 12 11 13 13 11 10 10 9 10 10 11 11 10 11 10 10 9 9 9 8 7 6 7 8 8 8 10 10 11 11 12 12 12 11 11 12 13 13 13 12 12 12 13 13 12 12 10 10 12 11 11 15 16 21
8 6 6 7 7 7 8 8 11 13 13 13 12 11 11 11 8 7 8 9 11 11 10 9 9 9 8 9 10 10 8 9 8 8 8 8 9 10 11 11 11 12 12 12 12 13 13 13 12 12 12 14 13 12 10 10 11 11 11 9 10 11 13
9 8 6 7 7 6 7 6 7 10 13 12 11 11 11 11 10 8 8 8 8 9 10 10 9 8 8 9 9 9 10 9 10 10 9 8 9 10 11 11 11 12 13 13 14 13 13 12 12 13 14 14 12 10 9 11 11 12 12 12 11 11 10
9 9 8 7 7 5 6 6 7 8 10 12 11 11 11 12 11 9 8 7 7 7 9 10 12 10 10 9 9 9 8 8 8 8 8 9 9 11 12 12 13 14 14 15 14 14 14 14 14 15 15 13 12 12 11 12 14 15 14 14 15 14 11
9 11 10 8 7 6 6 6 7 8 10 10 10 10 10 11 11 10 8 8 7 7 8 10 10 10 10 9 8 9 8 7 8 9 9 9 8 10 11 15 18 16 14 13 17 21 21 18 15 16 14 13 13 13 15 15 17 20 20 20 19 19 20
9 10 11 9 7 7 7 6 6 7 9 10 9 10 11 10 10 10 10 8 8 8 9 9 10 9 8 8 8 9 8 8 9 10 10 9 8 8 9 8 10 13 15 15 14 18 21 21 24 22 19 16 13 14 21 21 18 13 14 17 17 19 20
9 10 11 9 7 7 7 8 6 6 8 9 8 9 10 11 10 10 11 10 10 8 8 8 8 9 8 8 8 9 8 8 9 10 10 10 8 8 8 8 9 10 9 9 10 12 18 22 23 21 17 19 18 14 11 15 14 11 15 17 18 19 19
Wind_Direction
191 192 194 193 193 195 195 193 189 187 187 188 188 186 184 183 182 181 183 185 188 187 186 184 186 187 192 196 195 191 189 185 187 194 193 193 194 189 190 194 194 196 194 198 206 207 214 205 200 203 201 204 207 208 210 208 208 214 210 209 209 205 209
193 196 195 194 196 196 197 194 190 188 188 189 188 187 186 185 182 184 185 185 188 187 185 187 186 189 191 195 195 193 189 191 191 195 198 197 193 192 193 193 196 197 198 203 203 207 205 212 202 202 200 203 210 211 209 208 208 210 208 201 199 207 200
196 196 194 194 196 196 195 193 193 190 188 188 188 188 190 188 185 185 183 185 189 189 187 188 189 190 190 191 192 196 194 191 192 195 199 201 198 193 193 193 199 197 203 201 202 206 206 206 208 205 199 200 210 213 215 212 213 206 206 194 195 198 200
197 196 196 196 194 193 192 194 192 192 190 189 189 190 190 188 185 185 185 185 186 188 189 192 190 191 190 189 193 195 195 194 195 197 202 204 203 196 187 197 201 203 199 204 206 204 207 202 205 209 204 202 207 211 214 218 218 211 204 194 201 201 203
202 199 197 193 193 192 193 194 192 192 192 190 190 190 190 188 183 184 188 188 188 189 190 189 190 191 192 192 194 194 195 195 197 200 202 205 204 195 195 197 198 200 204 204 204 205 204 201 205 204 208 204 210 208 216 218 222 219 210 192 203 201 203
197 194 197 196 195 195 195 194 192 191 190 188 187 188 189 187 185 186 188 187 192 192 189 188 191 190 193 194 194 194 194 197 198 200 200 202 196 198 202 203 198 202 203 205 201 205 203 203 204 202 203 206 207 211 215 217 220 215 219 202 205 199 197
194 194 195 197 196 195 194 194 192 191 191 189 185 184 185 187 189 189 186 189 190 190 191 193 194 192 195 191 197 194 194 194 193 199 201 202 201 203 206 205 202 203 204 199 206 203 203 207 208 204 203 202 205 208 211 217 220 212 211 213 218 211 202
194 194 198 196 195 192 193 194 191 189 188 187 184 183 186 188 189 187 189 191 190 192 193 193 194 195 193 193 196 197 195 194 192 194 196 202 206 210 207 204 203 203 197 198 208 198 204 208 210 207 202 202 206 207 209 213 217 210 199 213 221 224 206
205 196 194 195 193 192 192 191 189 187 186 187 188 186 185 187 189 190 191 190 190 192 196 195 194 193 191 193 196 200 198 193 192 190 193 199 205 212 211 209 207 195 196 205 204 202 205 207 208 206 202 206 208 207 208 209 213 208 202 213 215 220 218
211 227 229 211 198 194 194 191 187 185 187 188 189 186 187 189 189 190 190 191 190 194 196 194 194 193 192 193 197 196 196 198 198 193 193 198 203 209 215 214 210 200 204 207 202 201 209 209 208 204 201 208 211 210 212 211 213 209 207 212 212 217 219
56 89 93 110 199 206 195 190 189 192 190 190 190 189 188 188 190 190 191 191 192 195 195 194 193 192 193 194 196 197 198 200 196 198 199 200 200 206 209 214 215 210 211 207 210 208 206 213 207 205 203 209 212 212 213 214 212 213 215 216 212 215 217
25 23 25 49 48 47 214 207 210 208 200 196 193 192 188 189 189 190 190 193 192 193 193 194 192 193 193 193 196 199 200 200 199 201 202 203 204 204 204 207 212 215 216 213 215 213 211 211 211 208 210 212 214 213 216 215 212 213 218 218 214 212 215
28 28 26 25 38 45 42 31 152 190 237 222 219 209 198 194 192 192 192 193 193 193 193 192 190 191 193 194 198 199 201 200 202 202 203 204 206 206 205 205 208 210 216 215 219 217 216 216 215 217 215 217 216 217 216 216 211 211 215 217 212 209 209
24 28 23 22 24 25 30 32 15 23 164 170 191 201 207 203 199 197 195 195 194 193 192 191 191 192 194 194 198 201 202 203 201 202 203 203 204 207 210 210 208 208 209 207 215 221 222 220 218 220 219 222 221 220 217 217 215 212 214 214 212 209 212
22 21 18 21 17 15 19 19 19 19 4 23 169 182 191 194 195 195 199 197 195 194 195 191 191 193 195 196 200 202 202 201 201 203 203 202 201 204 208 212 214 213 209 206 211 215 221 224 223 221 223 227 227 227 222 220 219 213 210 211 213 212 216
20 18 17 14 12 13 12 13 16 12 13 14 7 357 185 183 188 190 192 195 193 196 194 188 195 195 197 199 202 201 201 199 199 200 201 201 203 205 206 209 211 214 215 215 212 213 214 219 223 223 222 223 225 227 228 227 226 220 212 208 209 209 217
18 15 11 9 9 11 10 13 10 11 11 3 359 0 358 339 192 181 190 189 190 192 190 190 196 197 198 203 202 201 199 198 200 198 200 203 205 205 205 208 209 211 214 216 218 217 215 215 219 222 222 221 222 223 226 229 230 225 215 213 211 209 212
12 9 6 1 1 7 11 9 10 7 4 354 349 345 350 356 339 190 180 187 190 190 189 192 195 196 200 203 201 200 199 200 198 200 203 201 204 204 205 206 208 212 212 213 216 217 217 219 220 221 222 222 222 224 225 229 231 228 222 216 214 212 213
10 7 4 0 356 356 6 8 6 360 351 351 345 343 337 328 2 8 3 38 56 43 217 205 196 196 200 201 201 202 200 199 199 201 203 204 204 204 203 204 207 211 213 214 215 212 214 220 220 221 221 222 223 225 224 228 227 226 224 220 216 215 215
10 6 3 358 350 349 351 358 357 350 342 340 336 336 328 322 326 4 81 45 337 117 100 55 335 274 214 203 203 201 198 199 201 203 206 206 205 204 204 205 209 210 212 214 211 212 217 218 219 221 220 221 223 227 227 226 227 221 221 221 219 216 210
11 10 360 355 347 342 343 345 346 343 341 340 339 332 332 342 348 353 350 55 158 182 153 157 168 213 282 250 212 202 200 202 203 205 206 205 204 205 207 208 212 211 210 210 210 212 215 215 217 219 220 221 221 225 228 229 224 217 217 219 218 217 207
350 10 1 345 339 336 340 340 334 332 328 320 330 328 332 331 332 337 343 329 64 39 340 215 191 195 195 222 223 208 204 202 204 207 207 205 205 206 209 209 209 210 210 211 215 216 215 216 216 217 218 219 219 222 229 231 222 216 215 216 217 213 207
342 347 353 340 332 328 330 332 329 323 322 320 319 316 322 319 320 323 325 333 321 298 199 218 255 238 213 210 210 207 204 203 205 208 207 205 206 209 210 210 210 212 205 209 214 215 214 216 215 217 217 217 217 219 226 230 222 214 214 214 214 204 210
350 346 340 336 334 328 329 330 326 319 313 307 305 320 321 319 317 315 321 334 316 256 232 226 235 237 238 232 219 207 201 203 206 208 208 207 209 210 212 211 212 211 203 207 210 214 217 216 219 217 216 216 218 217 222 228 222 211 213 212 209 198 207
339 338 337 335 333 339 336 333 326 319 310 308 308 330 325 332 323 331 344 343 345 337 309 246 232 233 232 238 237 226 212 209 209 208 208 209 212 211 210 209 209 208 203 209 211 217 216 216 220 221 220 219 220 218 218 226 225 212 211 210 207 199 211
331 336 332 333 338 335 330 329 327 324 322 323 316 321 338 341 332 332 344 337 327 332 334 334 321 266 241 234 222 226 225 221 216 214 212 212 214 211 211 209 207 205 205 208 210 214 213 216 218 221 223 221 221 221 218 224 227 216 210 208 206 197 203
298 314 321 321 329 335 332 336 332 320 313 304 303 314 325 336 341 342 338 335 331 342 340 335 329 320 302 288 262 220 218 224 225 226 220 216 216 213 212 207 207 205 205 207 209 211 214 216 217 220 224 221 220 223 221 221 224 223 206 208 203 199 198
301 313 312 309 318 334 340 333 327 325 322 313 313 317 322 328 341 336 335 331 334 335 328 326 324 319 313 220 234 251 248 223 226 225 226 223 219 217 217 214 210 207 207 208 208 210 215 215 217 220 223 223 221 222 225 222 219 225 212 206 203 199 198
314 314 319 325 325 333 341 337 330 328 322 320 320 323 318 334 336 338 334 330 328 324 324 321 315 310 304 297 282 244 235 250 236 229 224 222 217 217 221 214 211 210 207 206 208 211 214 215 216 219 222 224 223 223 224 224 223 220 219 206 203 200 200
292 292 300 301 304 313 327 325 327 327 318 319 322 324 327 340 334 330 325 322 329 327 327 321 312 300 294 295 286 284 272 245 238 232 228 224 219 218 218 214 212 211 208 206 207 210 213 217 215 217 221 222 225 224 223 221 224 218 218 212 202 203 202
288 290 291 299 303 308 319 324 320 325 321 323 322 330 334 335 331 328 319 322 331 334 329 319 311 308 307 304 297 291 285 276 260 240 228 225 219 220 218 216 211 212 211 207 208 210 213 216 211 214 218 221 223 225 222 219 220 226 215 213 203 203 205
281 272 279 285 297 309 317 320 321 318 322 324 325 327 331 331 327 321 318 318 321 320 310 302 305 306 306 303 297 291 287 284 279 263 244 230 222 221 218 215 209 211 209 206 208 209 213 214 211 215 217 220 223 223 221 215 219 226 222 207 209 207 210
289 272 276 288 287 298 308 321 320 319 321 323 323 322 322 322 319 318 318 314 315 311 303 302 306 308 306 305 306 301 294 283 279 276 262 239 230 224 221 217 212 210 209 206 209 211 213 213 211 215 216 221 223 221 215 214 221 224 223 201 199 210 214
291 288 273 269 279 282 293 302 305 309 314 314 314 314 313 314 321 322 312 306 308 312 312 307 301 297 295 294 290 285 285 282 275 271 265 251 230 224 223 216 212 211 208 205 207 209 212 211 212 215 216 221 221 217 211 219 223 221 218 212 205 211 203
290 284 277 279 281 281 281 293 302 304 301 303 306 308 311 312 314 315 311 308 309 314 310 302 296 291 287 286 282 278 275 276 280 273 265 254 238 228 220 214 210 211 213 212 207 206 207 209 214 214 217 217 214 207 215 220 223 224 212 211 203 200 199
288 288 283 267 265 270 272 277 285 293 298 299 304 305 305 307 310 312 310 303 305 306 307 302 293 287 284 285 284 284 279 285 289 285 275 256 241 232 231 226 217 209 211 215 212 209 210 206 211 212 210 213 214 206 209 217 220 219 200 204 201 197 198
278 281 281 277 274 278 275 275 279 288 296 299 302 306 307 305 305 307 306 308 306 309 306 297 290 282 279 279 283 283 284 286 283 281 277 267 251 233 226 226 236 240 236 233 216 209 213 213 219 218 208 206 216 217 221 227 230 213 193 200 200 198 201
259 261 268 271 259 263 274 280 282 285 292 295 298 303 306 304 304 301 307 313 316 307 293 280 277 281 280 278 276 273 267 271 276 279 279 273 256 237 223 219 218 229 237 234 244 237 220 218 221 221 216 216 216 216 224 229 227 202 193 196 197 201 205